Overview Statistics Trail Chart Weather Telemetry Raw packets
 

This is the latest recevied weather packets stored in our database for station/object KO4LCK. If no packets are shown the sender has not sent any weather packets the latest 10 day(s).

<< 61 62 63 64 65 66 67 >>
Time Temp. Humidity Pressure Rain* Wind** Luminosity Snow
1788224287 26.67° C 75% 1019.5 hPa 0 mm - 0 W/m² -
1788223983 26.67° C 74% 1019.4 hPa 0 mm - 0 W/m² -
1788223682 27.22° C 73% 1019.3 hPa 0 mm - 0 W/m² -
1788223377 27.22° C 72% 1019.2 hPa 0 mm - 0 W/m² -
1788223077 27.22° C 71% 1019.1 hPa 0 mm - 0 W/m² -
1788222772 27.22° C 71% 1019.1 hPa 0 mm - 0 W/m² -
1788222470 27.78° C 70% 1019.2 hPa 0 mm - 0 W/m² -
1788222166 28.33° C 68% 1019 hPa 0 mm - 0 W/m² -
1788221855 28.33° C 68% 1019 hPa 0 mm - 1 W/m² -
1788221551 28.89° C 68% 1019 hPa 0 mm - 2 W/m² -
1788221246 28.89° C 66% 1019 hPa 0 mm - 3 W/m² -
1788220941 29.44° C 64% 1019.2 hPa 0 mm - 7 W/m² -
1788220639 29.44° C 64% 1019 hPa 0 mm - 8 W/m² -
1788220335 30° C 64% 1019.1 hPa 0 mm - 11 W/m² -
1788220036 30° C 60% 1019.2 hPa 0 mm - 15 W/m² -
1788219736 30° C 62% 1019.1 hPa 0 mm - 18 W/m² -
1788219431 30.56° C 60% 1019 hPa 0 mm - 21 W/m² -
1788219126 30.56° C 60% 1019.1 hPa 0 mm - 24 W/m² -
1788218826 31.11° C 60% 1019 hPa 0 mm - 26 W/m² -
1788218523 31.67° C 59% 1019 hPa 0 mm - 30 W/m² -
1788218219 31.67° C 59% 1019.3 hPa 0 mm - 32 W/m² -
1788217914 32.22° C 54% 1019 hPa 0 mm - 35 W/m² -
1788217609 32.22° C 55% 1019.1 hPa 0 mm - 37 W/m² -
1788217305 32.78° C 50% 1019.1 hPa 0 mm - 39 W/m² -
1788217004 32.78° C 51% 1019.1 hPa 0 mm - 41 W/m² -

* Rain latest hour (hover to see other rain measurements)
** Current wind speed in m/s (hover to see current wind gust speed)